Location: Dumpton Point
(51.3500°N, 1.4433°E)
Time: 08:56:29
(UTC+00:00)

Tiros 1 despin weight - All Passes

Search period start: 07 October 2022 00:00
Search period end: 17 October 2022 00:00
Orbit: 591 x 638 km, 48.2° (Epoch: 07 October)

Date Brightness Start Highest point End Pass type
(mag) Time Alt. Az. Time Alt. Az. Time Alt. Az.
07 Oct - 14:32:55 10° SSW 14:36:45 29° SSE 14:40:38 10° E daylight
07 Oct - 16:13:22 10° WSW 16:17:45 55° S 16:22:12 10° E daylight
07 Oct - 17:54:34 10° W 17:58:57 51° SSW 18:03:24 10° ESE visible
07 Oct - 19:36:13 10° W 19:39:52 24° SSW 19:43:33 10° SSE visible
08 Oct - 13:08:46 10° S 13:11:13 15° SE 13:13:41 10° ESE daylight
08 Oct - 14:47:42 10° SW 14:51:51 39° SSE 14:56:05 10° E daylight
08 Oct - 16:28:35 10° WSW 16:32:59 59° S 16:37:28 10° E daylight
08 Oct - 18:09:54 10° W 18:14:09 41° SSW 18:18:27 10° SE visible
08 Oct - 19:52:06 10° WSW 19:54:51 16° SW 19:57:35 10° S visible
09 Oct - 13:22:42 10° SSW 13:26:10 23° SSE 13:29:40 10° E daylight
09 Oct - 15:02:43 10° WSW 15:07:02 50° SSE 15:11:24 10° E daylight
09 Oct - 16:43:50 10° W 16:48:14 56° S 16:52:41 10° ESE daylight
09 Oct - 18:25:18 10° W 18:29:16 30° SSW 18:33:15 10° SE visible
10 Oct - 12:00:15 10° SE 12:00:44 10° SE 12:01:13 10° SE daylight
10 Oct - 13:37:15 10° SW 13:41:11 32° SSE 13:45:12 10° E daylight
10 Oct - 15:17:52 10° WSW 15:22:14 57° S 15:26:41 10° E daylight
10 Oct - 16:59:06 10° W 17:03:25 47° SSW 17:07:48 10° ESE daylight
10 Oct - 18:40:53 10° W 18:44:16 21° SSW 18:47:41 10° SSE visible
11 Oct - 12:12:44 10° S 12:15:36 17° SE 12:18:29 10° ESE daylight
11 Oct - 13:52:06 10° SW 13:56:19 43° SSE 14:00:34 10° E daylight
11 Oct - 15:33:04 10° W 15:37:27 58° S 15:41:55 10° ESE daylight
11 Oct - 17:14:25 10° W 17:18:34 37° SSW 17:22:46 10° SE daylight
11 Oct - 18:57:02 10° WSW 18:59:10 13° SW 19:01:20 10° SSW visible
12 Oct - 12:26:54 10° SSW 12:30:32 26° SSE 12:34:13 10° E daylight
12 Oct - 14:07:09 10° WSW 14:11:28 53° S 14:15:51 10° E daylight
12 Oct - 15:48:19 10° W 15:52:40 53° S 15:57:05 10° ESE daylight
12 Oct - 17:29:51 10° W 17:33:38 26° SSW 17:37:26 10° SSE daylight
13 Oct - 11:03:14 10° SSE 11:05:02 12° SE 11:06:49 10° ESE daylight
13 Oct - 12:41:33 10° SW 12:45:35 36° SSE 12:49:40 10° E daylight
13 Oct - 14:22:18 10° WSW 14:26:39 58° S 14:31:05 10° E daylight
13 Oct - 16:03:35 10° W 16:07:50 44° SSW 16:12:07 10° SE daylight
13 Oct - 17:45:33 10° WSW 17:48:35 18° SW 17:51:39 10° S visible
14 Oct - 11:16:43 10° SSW 11:19:54 20° SE 11:23:06 10° E daylight
14 Oct - 12:56:27 10° WSW 13:00:41 46° SSE 13:04:58 10° E daylight
14 Oct - 14:37:30 10° W 14:41:52 57° S 14:46:16 10° ESE daylight
14 Oct - 16:18:54 10° W 16:22:55 33° SSW 16:26:58 10° SE daylight
14 Oct - 18:02:18 10° WSW 18:03:26 11° SW 18:04:35 10° SSW visible
15 Oct - 11:31:04 10° SSW 11:34:51 29° SSE 11:38:41 10° E daylight
15 Oct - 13:11:31 10° WSW 13:15:50 55° S 13:20:12 10° E daylight
15 Oct - 14:52:43 10° W 14:57:02 50° SSW 15:01:23 10° ESE daylight
15 Oct - 16:34:22 10° W 16:37:55 23° SSW 16:41:30 10° SSE daylight
16 Oct - 10:06:51 10° S 10:09:16 15° SE 10:11:41 10° ESE daylight
16 Oct - 11:45:48 10° SW 11:49:54 39° SSE 11:54:03 10° E daylight
16 Oct - 13:26:40 10° WSW 13:31:01 58° S 13:35:24 10° ESE daylight
16 Oct - 15:07:59 10° W 15:12:09 40° SSW 15:16:21 10° SE daylight
16 Oct - 16:50:14 10° WSW 16:52:49 15° SW 16:55:25 10° S daylight
